| time (UTC) | temp C | wind direction | speed KPH | gust KPH | rain 1hr cm | rain 24hr cm | rain mn cm | humidity % | barometer mb |
| 20260506124243 | 4 | 185 | 0.0 | 16.1 | 0.00 | 0.03 | 0.00 | 74 | 1008.6 |
| 20260506123747 | 4 | 233 | 1.6 | 16.1 | 0.00 | 0.03 | 0.00 | 72 | 1008.6 |
| 20260506123226 | 4 | 215 | 3.2 | 11.3 | 0.00 | 0.03 | 0.00 | 72 | 1008.6 |
| 20260506122736 | 4 | 188 | 1.6 | 9.7 | 0.00 | 0.03 | 0.00 | 73 | 1008.5 |
| 20260506122236 | 4 | 196 | 0.0 | 8.0 | 0.00 | 0.03 | 0.00 | 74 | 1008.6 |
| 20260506120451 | 4 | 208 | 0.0 | 8.0 | 0.00 | 0.03 | 0.00 | 77 | 1008.3 |
| 20260506115330 | 4 | 153 | 0.0 | 8.0 | 0.00 | 0.03 | 0.00 | 76 | 1008.0 |
| 20260506114831 | 4 | 188 | 0.0 | 4.8 | 0.00 | 0.03 | 0.00 | 78 | 1008.0 |
| 20260506113701 | 4 | 173 | 0.0 | 3.2 | 0.00 | 0.03 | 0.00 | 77 | 1007.9 |
| 20260506113201 | 4 | 172 | 0.0 | 3.2 | 0.00 | 0.03 | 0.00 | 77 | 1007.7 |
| 20260506112642 | 4 | 173 | 0.0 | 0.0 | 0.00 | 0.03 | 0.00 | 76 | 1007.6 |
| 20260506112124 | 4 | 174 | 0.0 | 6.4 | 0.00 | 0.03 | 0.00 | 76 | 1007.6 |
| 20260506111620 | 4 | 157 | 0.0 | 6.4 | 0.00 | 0.03 | 0.00 | 75 | 1007.6 |
| 20260506111104 | 4 | 155 | 0.0 | 1.6 | 0.00 | 0.03 | 0.00 | 75 | 1007.4 |
| 20260506110612 | 4 | 188 | 0.0 | 0.0 | 0.00 | 0.03 | 0.00 | 74 | 1007.3 |
| 20260506110053 | 5 | 158 | 0.0 | 4.8 | 0.00 | 0.03 | 0.00 | 74 | 1007.2 |
| 20260506105542 | 5 | 171 | 0.0 | 4.8 | 0.00 | 0.03 | 0.00 | 73 | 1007.1 |
| 20260506105050 | 5 | 163 | 0.0 | 6.4 | 0.00 | 0.03 | 0.00 | 73 | 1006.9 |
| 20260506104556 | 5 | 156 | 1.6 | 6.4 | 0.00 | 0.03 | 0.00 | 72 | 1006.9 |
| 20260506104052 | 5 | 142 | 0.0 | 6.4 | 0.00 | 0.03 | 0.00 | 72 | 1006.9 |
| 20260506103557 | 5 | 166 | 0.0 | 1.6 | 0.00 | 0.03 | 0.00 | 71 | 1006.9 |
| 20260506102431 | 5 | 155 | 0.0 | 1.6 | 0.00 | 0.03 | 0.00 | 70 | 1006.9 |
| 20260506101929 | 5 | 177 | 0.0 | 0.0 | 0.00 | 0.03 | 0.00 | 70 | 1006.7 |
| 20260506101414 | 5 | 176 | 0.0 | 1.6 | 0.00 | 0.03 | 0.00 | 70 | 1006.5 |
| 20260506100908 | 5 | 185 | 0.0 | 3.2 | 0.00 | 0.03 | 0.00 | 69 | 1006.3 |
| 20260506100352 | 5 | 143 | 0.0 | 4.8 | 0.00 | 0.03 | 0.00 | 69 | 1006.3 |
| 20260506095231 | 5 | 158 | 0.0 | 3.2 | 0.00 | 0.03 | 0.00 | 69 | 1006.1 |
| 20260506094738 | 5 | 194 | 0.0 | 3.2 | 0.00 | 0.03 | 0.00 | 69 | 1006.1 |
| 20260506093622 | 6 | 180 | 0.0 | 3.2 | 0.00 | 0.03 | 0.00 | 70 | 1006.1 |
| 20260506093105 | 6 | 172 | 0.0 | 6.4 | 0.00 | 0.03 | 0.00 | 70 | 1006.4 |
| 20260506092607 | 6 | 172 | 0.0 | 6.4 | 0.00 | 0.03 | 0.00 | 71 | 1006.2 |
| 20260506092115 | 6 | 179 | 0.0 | 0.0 | 0.00 | 0.03 | 0.00 | 71 | 1006.1 |
| 20260506091609 | 6 | 188 | 0.0 | 0.0 | 0.00 | 0.03 | 0.00 | 72 | 1006.0 |
| 20260506091050 | 6 | 159 | 0.0 | 0.0 | 0.00 | 0.03 | 0.00 | 72 | 1005.9 |
| 20260506090548 | 6 | 175 | 0.0 | 0.0 | 0.00 | 0.03 | 0.00 | 73 | 1005.9 |
| 20260506090044 | 6 | 160 | 0.0 | 1.6 | 0.00 | 0.03 | 0.00 | 74 | 1006.0 |
| 20260506085548 | 6 | 177 | 0.0 | 0.0 | 0.00 | 0.03 | 0.00 | 75 | 1005.9 |
| 20260506083827 | 6 | 174 | 0.0 | 4.8 | 0.00 | 0.03 | 0.00 | 75 | 1005.9 |
| 20260506083322 | 7 | 172 | 0.0 | 0.0 | 0.00 | 0.03 | 0.00 | 74 | 1005.8 |
| 20260506082806 | 7 | 190 | 0.0 | 0.0 | 0.00 | 0.03 | 0.00 | 74 | 1005.9 |
| 20260506081654 | 7 | 166 | 0.0 | 0.0 | 0.00 | 0.03 | 0.00 | 72 | 1005.9 |
| 20260506081157 | 7 | 179 | 0.0 | 3.2 | 0.00 | 0.03 | 0.00 | 72 | 1005.9 |
| 20260506080645 | 7 | 176 | 0.0 | 4.8 | 0.00 | 0.03 | 0.00 | 72 | 1005.9 |
| 20260506080137 | 7 | 188 | 0.0 | 0.0 | 0.00 | 0.03 | 0.00 | 71 | 1005.9 |
| 20260506073121 | 8 | 176 | 0.0 | 3.2 | 0.00 | 0.03 | 0.00 | 63 | 1005.5 |
| 20260506072627 | 8 | 172 | 0.0 | 0.0 | 0.00 | 0.03 | 0.00 | 62 | 1005.5 |
| 20260506072107 | 8 | 167 | 0.0 | 3.2 | 0.00 | 0.03 | 0.00 | 62 | 1005.6 |
| 20260506070946 | 8 | 153 | 0.0 | 0.0 | 0.00 | 0.03 | 0.00 | 61 | 1005.5 |
| 20260506070443 | 8 | 153 | 0.0 | 0.0 | 0.00 | 0.03 | 0.00 | 61 | 1005.5 |
| 20260506062312 | 8 | 163 | 0.0 | 3.2 | 0.00 | 0.03 | 0.00 | 58 | 1005.7 |
| 20260506061802 | 8 | 132 | 0.0 | 4.8 | 0.00 | 0.03 | 0.00 | 58 | 1005.6 |
| 20260506060623 | 8 | 139 | 0.0 | 3.2 | 0.00 | 0.03 | 0.00 | 57 | 1005.5 |
| 20260506060112 | 8 | 176 | 0.0 | 6.4 | 0.00 | 0.03 | 0.00 | 56 | 1005.4 |
| 20260506051037 | 9 | 146 | 0.0 | 4.8 | 0.00 | 0.05 | 0.00 | 55 | 1005.4 |
| 20260506050523 | 9 | 182 | 0.0 | 1.6 | 0.00 | 0.05 | 0.00 | 55 | 1005.4 |
| 20260506045008 | 9 | 167 | 0.0 | 0.0 | 0.00 | 0.05 | 0.00 | 55 | 1005.2 |
| 20260506043835 | 9 | 140 | 0.0 | 1.6 | 0.00 | 0.05 | 0.00 | 55 | 1005.3 |
| 20260506043342 | 9 | 175 | 0.0 | 0.0 | 0.00 | 0.05 | 0.00 | 54 | 1005.0 |
| 20260506042836 | 9 | 166 | 0.0 | 0.0 | 0.00 | 0.05 | 0.00 | 55 | 1005.1 |
| 20260506042336 | 9 | 150 | 0.0 | 0.0 | 0.00 | 0.05 | 0.00 | 54 | 1005.3 |
| 20260506041206 | 9 | 203 | 0.0 | 3.2 | 0.00 | 0.05 | 0.00 | 55 | 1005.3 |
| 20260506040703 | 9 | 162 | 0.0 | 4.8 | 0.00 | 0.05 | 0.00 | 55 | 1005.2 |
| 20260506040152 | 9 | 163 | 0.0 | 0.0 | 0.00 | 0.05 | 0.00 | 55 | 1005.4 |
| 20260506035644 | 9 | 162 | 0.0 | 0.0 | 0.00 | 0.05 | 0.05 | 55 | 1005.4 |
| 20260506035150 | 9 | 167 | 0.0 | 0.0 | 0.00 | 0.05 | 0.05 | 55 | 1005.4 |
| 20260506034631 | 9 | 169 | 0.0 | 0.0 | 0.00 | 0.05 | 0.05 | 54 | 1005.3 |
| 20260506034117 | 9 | 158 | 0.0 | 0.0 | 0.00 | 0.05 | 0.05 | 55 | 1005.5 |
| 20260506033626 | 9 | 175 | 0.0 | 0.0 | 0.00 | 0.05 | 0.05 | 55 | 1005.4 |
| 20260506032447 | 9 | 140 | 0.0 | 0.0 | 0.00 | 0.05 | 0.05 | 54 | 1005.5 |
| 20260506031326 | 9 | 178 | 0.0 | 0.0 | 0.00 | 0.05 | 0.05 | 54 | 1005.3 |
| 20260506030810 | 10 | 221 | 0.0 | 0.0 | 0.00 | 0.05 | 0.05 | 57 | 1005.4 |
| 20260506030256 | 10 | 185 | 0.0 | 0.0 | 0.00 | 0.05 | 0.05 | 54 | 1005.3 |
| 20260506024455 | 10 | 182 | 0.0 | 0.0 | 0.00 | 0.05 | 0.05 | 53 | 1005.5 |
| 20260506024002 | 10 | 158 | 0.0 | 0.0 | 0.00 | 0.05 | 0.05 | 54 | 1005.4 |
| 20260506023455 | 10 | 159 | 0.0 | 0.0 | 0.00 | 0.05 | 0.05 | 53 | 1005.3 |
| 20260506022331 | 10 | 178 | 0.0 | 0.0 | 0.00 | 0.05 | 0.05 | 53 | 1005.6 |
| 20260506021825 | 10 | 184 | 0.0 | 1.6 | 0.00 | 0.05 | 0.05 | 53 | 1005.6 |
| 20260506021327 | 10 | 174 | 0.0 | 3.2 | 0.00 | 0.05 | 0.05 | 53 | 1005.6 |
| 20260506020210 | 10 | 138 | 0.0 | 1.6 | 0.00 | 0.05 | 0.05 | 52 | 1005.1 |
| 20260506015714 | 10 | 134 | 0.0 | 1.6 | 0.00 | 0.05 | 0.05 | 52 | 1005.1 |
| 20260506015208 | 10 | 103 | 0.0 | 1.6 | 0.00 | 0.05 | 0.05 | 53 | 1005.1 |
| 20260506014713 | 10 | 175 | 0.0 | 0.0 | 0.00 | 0.05 | 0.05 | 53 | 1005.0 |
| 20260506014202 | 10 | 169 | 0.0 | 0.0 | 0.00 | 0.05 | 0.05 | 54 | 1004.9 |
| 20260506013654 | 10 | 190 | 0.0 | 0.0 | 0.00 | 0.05 | 0.05 | 56 | 1004.9 |
| 20260506012544 | 10 | 148 | 0.0 | 0.0 | 0.00 | 0.05 | 0.05 | 55 | 1004.8 |
| 20260506012046 | 10 | 147 | 0.0 | 0.0 | 0.00 | 0.05 | 0.05 | 55 | 1004.7 |
| 20260506011533 | 10 | 161 | 0.0 | 0.0 | 0.00 | 0.05 | 0.05 | 59 | 1004.7 |
| 20260506010413 | 10 | 149 | 0.0 | 0.0 | 0.00 | 0.05 | 0.05 | 61 | 1004.7 |
| 20260506005910 | 10 | 146 | 0.0 | 0.0 | 0.00 | 0.05 | 0.05 | 63 | 1004.8 |
| 20260506005413 | 10 | 184 | 0.0 | 0.0 | 0.00 | 0.05 | 0.05 | 68 | 1004.8 |
| 20260506004241 | 11 | 186 | 0.0 | 0.0 | 0.00 | 0.08 | 0.05 | 65 | 1004.6 |
| 20260506003732 | 11 | 186 | 0.0 | 0.0 | 0.00 | 0.08 | 0.05 | 63 | 1004.7 |
| 20260506003215 | 11 | 259 | 0.0 | 0.0 | 0.00 | 0.08 | 0.05 | 63 | 1004.8 |
| 20260506002726 | 11 | 110 | 0.0 | 0.0 | 0.00 | 0.08 | 0.05 | 63 | 1004.7 |
| 20260506002225 | 11 | 62 | 0.0 | 3.2 | 0.00 | 0.08 | 0.05 | 63 | 1004.6 |
| 20260506001711 | 11 | 103 | 0.0 | 0.0 | 0.00 | 0.08 | 0.05 | 64 | 1004.4 |
| 20260506000539 | 11 | 143 | 0.0 | 0.0 | 0.00 | 0.08 | 0.05 | 63 | 1004.2 |
| 20260506000045 | 11 | 62 | 0.0 | 0.0 | 0.00 | 0.08 | 0.05 | 63 | 1004.2 |
| 20260505235554 | 11 | 93 | 0.0 | 0.0 | 0.00 | 0.08 | 0.05 | 62 | 1004.2 |
| 20260505235041 | 11 | 79 | 0.0 | 0.0 | 0.00 | 0.08 | 0.05 | 61 | 1004.1 |
| 20260505234541 | 11 | 133 | 0.0 | 0.0 | 0.00 | 0.08 | 0.05 | 61 | 1004.0 |
| 20260505234024 | 11 | 82 | 0.0 | 1.6 | 0.00 | 0.08 | 0.05 | 60 | 1004.0 |
| 20260505233519 | 11 | 285 | 0.0 | 0.0 | 0.00 | 0.08 | 0.05 | 60 | 1003.9 |
| 20260505233016 | 12 | 75 | 0.0 | 0.0 | 0.00 | 0.08 | 0.05 | 59 | 1003.9 |
| 20260505232522 | 12 | 147 | 0.0 | 0.0 | 0.00 | 0.08 | 0.05 | 60 | 1003.9 |
| 20260505232031 | 12 | 127 | 0.0 | 0.0 | 0.00 | 0.08 | 0.05 | 59 | 1003.8 |
| 20260505230932 | 12 | 84 | 0.0 | 0.0 | 0.00 | 0.08 | 0.05 | 59 | 1003.9 |
| 20260505230416 | 12 | 62 | 0.0 | 0.0 | 0.00 | 0.08 | 0.05 | 59 | 1003.9 |
| 20260505225922 | 12 | 62 | 0.0 | 0.0 | 0.00 | 0.08 | 0.05 | 58 | 1004.0 |
| 20260505225432 | 12 | 148 | 0.0 | 0.0 | 0.00 | 0.08 | 0.05 | 58 | 1004.0 |
| 20260505224308 | 12 | 142 | 0.0 | 1.6 | 0.00 | 0.08 | 0.05 | 56 | 1004.1 |
| 20260505222523 | 12 | 160 | 0.0 | 6.4 | 0.00 | 0.08 | 0.05 | 56 | 1004.1 |
| 20260505221345 | 12 | 120 | 0.0 | 0.0 | 0.00 | 0.08 | 0.05 | 58 | 1004.1 |
| 20260505220830 | 12 | 154 | 0.0 | 0.0 | 0.00 | 0.08 | 0.05 | 57 | 1004.1 |
| 20260505220331 | 12 | 96 | 1.6 | 8.0 | 0.00 | 0.08 | 0.05 | 58 | 1004.2 |
| 20260505215206 | 12 | 328 | 0.0 | 6.4 | 0.00 | 0.08 | 0.05 | 63 | 1004.1 |
| 20260505214702 | 12 | 63 | 0.0 | 6.4 | 0.00 | 0.08 | 0.05 | 64 | 1004.0 |
| 20260505214153 | 12 | 188 | 0.0 | 0.0 | 0.00 | 0.08 | 0.05 | 67 | 1003.9 |
| 20260505213657 | 12 | 112 | 0.0 | 0.0 | 0.00 | 0.08 | 0.05 | 71 | 1003.8 |
| 20260505213151 | 12 | 84 | 0.0 | 0.0 | 0.00 | 0.08 | 0.05 | 74 | 1003.9 |
| 20260505212028 | 11 | 72 | 0.0 | 0.0 | 0.00 | 0.08 | 0.05 | 77 | 1004.0 |
| 20260505211518 | 11 | 62 | 0.0 | 4.8 | 0.00 | 0.08 | 0.05 | 76 | 1004.1 |
| 20260505211004 | 11 | 62 | 0.0 | 0.0 | 0.00 | 0.08 | 0.05 | 76 | 1003.9 |
| 20260505210453 | 11 | 62 | 0.0 | 0.0 | 0.00 | 0.08 | 0.05 | 76 | 1003.9 |
| 20260505205313 | 12 | 63 | 0.0 | 0.0 | 0.00 | 0.08 | 0.05 | 77 | 1003.9 |
| 20260505204803 | 12 | 95 | 0.0 | 3.2 | 0.00 | 0.08 | 0.05 | 77 | 1003.9 |
| 20260505204248 | 12 | 97 | 0.0 | 3.2 | 0.00 | 0.08 | 0.05 | 77 | 1003.8 |
| 20260505201840 | 12 | 61 | 0.0 | 9.7 | 0.00 | 0.08 | 0.05 | 77 | 1003.9 |
| 20260505201323 | 12 | 96 | 0.0 | 4.8 | 0.00 | 0.08 | 0.05 | 78 | 1004.0 |
| 20260505200823 | 12 | 148 | 0.0 | 3.2 | 0.00 | 0.08 | 0.05 | 79 | 1004.0 |
| 20260505200307 | 11 | 61 | 0.0 | 0.0 | 0.00 | 0.08 | 0.05 | 80 | 1004.0 |
| 20260505195812 | 11 | 61 | 1.6 | 11.3 | 0.00 | 0.08 | 0.05 | 80 | 1004.1 |
| 20260505195309 | 11 | 62 | 1.6 | 11.3 | 0.00 | 0.08 | 0.05 | 80 | 1004.1 |
| 20260505194811 | 11 | 61 | 1.6 | 6.4 | 0.00 | 0.08 | 0.05 | 81 | 1004.2 |
| 20260505193701 | 12 | 77 | 0.0 | 0.0 | 0.00 | 0.08 | 0.05 | 77 | 1004.2 |
| 20260505193154 | 12 | 65 | 0.0 | 6.4 | 0.00 | 0.08 | 0.05 | 74 | 1004.2 |
| 20260505192656 | 12 | 61 | 0.0 | 0.0 | 0.00 | 0.08 | 0.05 | 66 | 1004.2 |
| 20260505192157 | 12 | 154 | 0.0 | 0.0 | 0.00 | 0.08 | 0.05 | 65 | 1004.2 |
| 20260505191656 | 12 | 61 | 0.0 | 3.2 | 0.00 | 0.08 | 0.05 | 67 | 1004.1 |
| 20260505191157 | 12 | 61 | 0.0 | 6.4 | 0.00 | 0.08 | 0.05 | 62 | 1004.2 |
| 20260505190659 | 12 | 126 | 0.0 | 12.9 | 0.00 | 0.08 | 0.05 | 63 | 1004.1 |
| 20260505184855 | 12 | 62 | 0.0 | 1.6 | 0.00 | 0.08 | 0.05 | 66 | 1003.8 |
| 20260505183717 | 13 | 152 | 0.0 | 0.0 | 0.00 | 0.08 | 0.05 | 66 | 1003.8 |
| 20260505183209 | 13 | 153 | 1.6 | 8.0 | 0.00 | 0.08 | 0.05 | 66 | 1003.7 |
| 20260505182655 | 13 | 61 | 0.0 | 8.0 | 0.00 | 0.08 | 0.05 | 68 | 1003.6 |
| 20260505182142 | 13 | 61 | 0.0 | 3.2 | 0.00 | 0.08 | 0.05 | 70 | 1003.5 |
| 20260505181643 | 12 | 61 | 0.0 | 3.2 | 0.00 | 0.08 | 0.05 | 70 | 1003.4 |
| 20260505180523 | 12 | 329 | 1.6 | 9.7 | 0.00 | 0.08 | 0.05 | 72 | 1003.4 |
| 20260505180012 | 12 | 329 | 1.6 | 9.7 | 0.00 | 0.08 | 0.05 | 72 | 1003.5 |
| 20260505175511 | 12 | 132 | 1.6 | 9.7 | 0.00 | 0.08 | 0.05 | 72 | 1003.2 |
| 20260505175016 | 12 | 91 | 1.6 | 9.7 | 0.00 | 0.08 | 0.05 | 71 | 1003.3 |
| 20260505174510 | 12 | 328 | 1.6 | 9.7 | 0.00 | 0.08 | 0.05 | 73 | 1003.4 |
| 20260505174001 | 12 | 61 | 1.6 | 9.7 | 0.00 | 0.08 | 0.05 | 74 | 1003.2 |
| 20260505173510 | 12 | 109 | 1.6 | 8.0 | 0.00 | 0.08 | 0.05 | 77 | 1003.2 |
| 20260505173001 | 12 | 63 | 3.2 | 11.3 | 0.00 | 0.08 | 0.05 | 79 | 1003.1 |
| 20260505172448 | 12 | 61 | 1.6 | 11.3 | 0.00 | 0.08 | 0.05 | 78 | 1003.2 |
| 20260505171947 | 11 | 80 | 0.0 | 11.3 | 0.00 | 0.08 | 0.05 | 78 | 1003.3 |
| 20260505170819 | 11 | 313 | 0.0 | 6.4 | 0.00 | 0.08 | 0.05 | 82 | 1003.4 |
| 20260505165710 | 10 | 63 | 0.0 | 8.0 | 0.00 | 0.08 | 0.05 | 82 | 1003.5 |
| 20260505164545 | 10 | 62 | 0.0 | 6.4 | 0.00 | 0.08 | 0.05 | 82 | 1003.5 |
| 20260505164042 | 10 | 153 | 0.0 | 0.0 | 0.00 | 0.08 | 0.05 | 82 | 1003.5 |
| 20260505163549 | 11 | 153 | 0.0 | 0.0 | 0.00 | 0.08 | 0.05 | 79 | 1003.4 |
| 20260505163034 | 11 | 153 | 0.0 | 0.0 | 0.00 | 0.05 | 0.03 | 77 | 1003.4 |
| 20260505162523 | 11 | 153 | 0.0 | 0.0 | 0.00 | 0.05 | 0.03 | 76 | 1003.6 |
| 20260505161344 | 11 | 153 | 0.0 | 0.0 | 0.00 | 0.05 | 0.03 | 74 | 1003.7 |
| 20260505160846 | 11 | 200 | 0.0 | 0.0 | 0.00 | 0.05 | 0.03 | 73 | 1003.6 |
| 20260505160328 | 11 | 157 | 0.0 | 4.8 | 0.00 | 0.05 | 0.03 | 72 | 1003.6 |
| 20260505153141 | 11 | 177 | 1.6 | 4.8 | 0.00 | 0.05 | 0.03 | 67 | 1003.2 |
| 20260505152013 | 12 | 155 | 0.0 | 1.6 | 0.00 | 0.05 | 0.03 | 68 | 1002.8 |
| 20260505151454 | 12 | 160 | 0.0 | 0.0 | 0.00 | 0.05 | 0.03 | 68 | 1002.8 |
| 20260505150958 | 12 | 172 | 0.0 | 6.4 | 0.00 | 0.05 | 0.03 | 67 | 1002.7 |
| 20260505150448 | 12 | 174 | 0.0 | 3.2 | 0.00 | 0.05 | 0.03 | 67 | 1002.7 |
| 20260505140406 | 12 | 176 | 1.6 | 3.2 | 0.00 | 0.05 | 0.03 | 67 | 1002.2 |